Tracking 32932 objects as of 15-Jan-2026
HD Live streaming from Space Station
objects crossing your sky now

ANIK E2

Track ANIK E2 now!
ANIK E2 is classified as:


NORAD ID: 21222
Int'l Code: 1991-026A
Perigee: 36,097.5 km
Apogee: 36,137.4 km
Inclination: 14.0 °
Period: 1,452.7 minutes
Semi major axis: 42488 km
RCS: 12.1056 m2 (large)
Launch date: April 4, 1991
Source: Canada (CA)
Launch site: FRENCH GUIANA (FRGUI)

Inclined orbit; Anik is Inuit for "Little Brother"; 24 C-band, 16 Ku-band transponders.
Your satellite tracking list
Your tracking list is empty




NASA's NSSDC Master Catalog

Two Line Element Set (TLE):
1 21222U 91026A   26014.19385124  .00000047  00000-0  00000-0 0  9994
2 21222  13.9540  13.5222 0004696 334.5061  54.7502  0.99128143115541
Source of the keplerian elements: AFSPC